This is the latest recevied weather packets stored in our database for station/object F4BQN-15. If no packets are shown the sender has not sent any weather packets the latest 10 day(s).
| Time | Temp. | Humidity | Pressure | Rain* | Wind** | Luminosity | Snow |
|---|---|---|---|---|---|---|---|
| 1777725014 | 28.89° C | 31% | 990.3 hPa | - | - | - | - |
| 1777724114 | 30.56° C | 30% | 990.3 hPa | - | - | - | - |
| 1777723214 | 30.56° C | 29% | 990.4 hPa | - | - | - | - |
| 1777722314 | 28.33° C | 30% | 990.4 hPa | - | - | - | - |
| 1777721414 | 27.22° C | 31% | 990.6 hPa | - | - | - | - |
| 1777720514 | 26.11° C | 31% | 990.9 hPa | - | - | - | - |
| 1777719614 | 25.56° C | 32% | 990.9 hPa | - | - | - | - |
| 1777718714 | 25.56° C | 31% | 991 hPa | - | - | - | - |
| 1777717814 | 25° C | 32% | 991.1 hPa | - | - | - | - |
| 1777716914 | 24.44° C | 32% | 991.2 hPa | - | - | - | - |
| 1777716013 | 23.89° C | 32% | 991.3 hPa | - | - | - | - |
| 1777715113 | 23.33° C | 32% | 991.5 hPa | - | - | - | - |
| 1777714213 | 22.22° C | 32% | 991.7 hPa | - | - | - | - |
| 1777713313 | 21.67° C | 33% | 991.7 hPa | - | - | - | - |
| 1777712413 | 21.11° C | 33% | 991.7 hPa | - | - | - | - |
| 1777711513 | 20.56° C | 33% | 991.6 hPa | - | - | - | - |
| 1777710613 | 20.56° C | 33% | 991.6 hPa | - | - | - | - |
| 1777709713 | 20.56° C | 33% | 991.6 hPa | - | - | - | - |
| 1777708813 | 20° C | 33% | 991.8 hPa | - | - | - | - |
| 1777707912 | 20° C | 33% | 991.9 hPa | - | - | - | - |
| 1777707012 | 19.44° C | 34% | 991.8 hPa | - | - | - | - |
| 1777706112 | 19.44° C | 33% | 992 hPa | - | - | - | - |
| 1777705212 | 18.89° C | 34% | 992 hPa | - | - | - | - |
| 1777704312 | 18.33° C | 34% | 992.1 hPa | - | - | - | - |
| 1777703412 | 18.33° C | 33% | 992.1 hPa | - | - | - | - |
* Rain since midnight (hover to see other rain measurements)
** Current wind speed in m/s (hover to see current wind gust speed)